KF5FGL Weather Reports


time (UTC)temp
C
wind
direction
speed
KPH
gust
KPH
rain 1hr
cm
rain 24hr
cm
rain mn
cm
humidity
%
barometer
mb
20260506144508 23 75 0.0 4.8 0.00 0.00 0.00 85 1008.5
20260506143029 23 112 0.0 4.8 0.00 0.00 0.00 86 1008.2
20260506141517 23 227 0.0 4.8 0.00 0.00 0.00 86 1007.9
20260506140010 23 141 0.0 4.8 0.00 0.00 0.00 85 1007.7
20260506134522 23 103 1.6 6.4 0.00 0.00 0.00 85 1007.4
20260506133008 23 133 3.2 8.0 0.00 0.00 0.00 85 1007.1
20260506131529 23 119 3.2 6.4 0.00 0.00 0.00 85 1007.1
20260506130021 23 195 1.6 6.4 0.00 0.00 0.00 85 1007.0
20260506124507 23 133 1.6 6.4 0.00 0.00 0.00 85 1007.1
20260506123025 23 130 0.0 6.4 0.00 0.00 0.00 86 1007.1
20260506121511 23 268 0.0 3.2 0.00 0.00 0.00 86 1006.9
20260506120029 23 187 0.0 6.4 0.00 0.00 0.00 86 1006.9
20260506114521 23 145 0.0 6.4 0.00 0.00 0.00 86 1006.8
20260506113006 23 71 1.6 6.4 0.00 0.00 0.00 86 1006.8
20260506111524 23 171 0.0 1.6 0.00 0.00 0.00 86 1006.8
20260506110012 23 173 0.0 3.2 0.00 0.00 0.00 86 1006.8
20260506104636 23 173 0.0 4.8 0.00 0.00 0.00 86 1006.6
20260506103021 24 141 0.0 6.4 0.00 0.00 0.00 86 1006.6
20260506101510 24 181 1.6 6.4 0.00 0.00 0.00 86 1006.5
20260506100039 23 172 1.6 8.0 0.00 0.00 0.00 86 1006.5
20260506094518 23 198 0.0 8.0 0.00 0.00 0.00 86 1006.4
20260506093008 23 191 0.0 6.4 0.00 0.00 0.00 86 1006.3
20260506091529 25 146 0.0 9.7 0.00 0.00 0.00 85 1006.4
20260506090015 24 144 3.2 9.7 0.00 0.00 0.00 86 1006.4
20260506084503 24 189 0.0 8.0 0.00 0.00 0.00 86 1006.5
20260506083035 24 166 3.2 11.3 0.00 0.00 0.00 86 1006.4
20260506081511 24 176 3.2 6.4 0.00 0.00 0.00 85 1006.4
20260506073005 24 163 0.0 9.7 0.00 0.00 0.00 86 1006.9
20260506071525 24 164 1.6 8.0 0.00 0.00 0.00 86 1007.0
20260506061507 25 108 3.2 12.9 0.00 0.00 0.00 85 1007.0
20260506044533 25 183 3.2 9.7 0.00 0.00 0.00 85 1007.0
20260506043017 25 115 1.6 12.9 0.00 0.00 0.00 85 1006.9
20260506041506 25 135 3.2 12.9 0.00 0.00 0.00 85 1006.9
20260506040040 25 152 1.6 4.8 0.00 0.00 0.00 84 1006.7
20260506034514 25 104 3.2 11.3 0.00 0.00 0.00 84 1006.4
20260506033004 25 153 3.2 12.9 0.00 0.00 0.00 85 1006.2
20260506031524 25 111 1.6 14.5 0.00 0.00 0.00 84 1006.2
20260506030013 26 173 1.6 9.7 0.00 0.00 0.00 83 1005.9
20260506024540 26 125 4.8 14.5 0.00 0.00 0.00 83 1005.7
20260506023021 27 117 3.2 12.9 0.00 0.00 0.00 80 1005.6
20260506021514 27 140 0.0 14.5 0.00 0.00 0.00 79 1005.5
20260506020031 28 113 3.2 8.0 0.00 0.00 0.00 77 1005.1
20260506014524 28 141 1.6 14.5 0.00 0.00 0.00 77 1005.0
20260506013008 27 117 3.2 12.9 0.00 0.00 0.00 78 1004.8
20260506011530 27 119 3.2 8.0 0.00 0.00 0.00 76 1004.6
20260506010016 28 77 1.6 8.0 0.00 0.00 0.00 75 1004.3
20260506004508 28 101 1.6 9.7 0.00 0.00 0.00 74 1004.3
20260506003026 30 117 3.2 12.9 0.00 0.00 0.00 70 1004.2
20260506001515 28 162 0.0 8.0 0.00 0.00 0.00 73 1004.2
20260506000110 29 127 1.6 8.0 0.00 0.00 0.00 72 1004.0
20260505234521 30 131 1.6 11.3 0.00 0.00 0.00 69 1003.9
20260505233010 29 139 1.6 6.4 0.00 0.00 0.00 69 1003.9
20260505231530 30 128 0.0 12.9 0.00 0.00 0.00 68 1003.8
20260505230017 31 177 1.6 11.3 0.00 0.00 0.00 66 1003.9
20260505224504 31 112 3.2 11.3 0.00 0.00 0.00 66 1003.7
20260505223024 30 180 1.6 8.0 0.00 0.00 0.00 66 1003.9
20260505221511 30 125 4.8 12.9 0.00 0.00 0.00 65 1004.0
20260505214518 30 175 1.6 11.3 0.00 0.00 0.00 67 1004.3
20260505213006 30 151 3.2 11.3 0.00 0.00 0.00 66 1004.6
20260505211535 29 162 3.2 9.7 0.00 0.00 0.00 68 1004.9
20260505210012 30 137 4.8 14.5 0.00 0.00 0.00 67 1005.0
20260505204528 29 151 6.4 14.5 0.00 0.00 0.00 69 1005.2
20260505203013 28 205 4.8 14.5 0.00 0.00 0.00 70 1005.6
20260505201505 28 208 3.2 11.3 0.00 0.00 0.00 71 1005.8
20260505200020 29 173 3.2 12.9 0.00 0.00 0.00 69 1005.9
20260505194509 28 152 1.6 9.7 0.00 0.00 0.00 71 1006.1
20260505193026 28 122 4.8 11.3 0.00 0.00 0.00 71 1006.2
20260505191513 28 180 3.2 9.7 0.00 0.00 0.00 72 1006.4
20260505190030 27 117 3.2 11.3 0.00 0.00 0.00 74 1006.8
20260505184525 27 146 3.2 17.7 0.00 0.00 0.00 75 1006.9
20260505183005 27 177 3.2 11.3 0.00 0.00 0.00 77 1007.2
20260505181524 26 181 4.8 11.3 0.00 0.00 0.00 78 1007.1
20260505180012 26 227 1.6 20.9 0.00 0.00 0.00 79 1007.2
20260505174531 26 193 3.2 9.7 0.00 0.00 0.00 78 1007.3
20260505173017 25 256 4.8 11.3 0.00 0.00 0.00 81 1007.6
20260505171506 25 221 3.2 12.9 0.00 0.00 0.00 82 1007.5
20260505170034 25 176 3.2 11.3 0.00 0.00 0.00 83 1007.5
20260505164512 25 186 1.6 17.7 0.00 0.00 0.00 83 1007.6
20260505163033 24 191 4.8 16.1 0.00 0.00 0.00 85 1007.6
20260505161516 23 194 3.2 17.7 0.00 0.00 0.00 85 1007.6
20260505153009 22 197 1.6 11.3 0.00 0.00 0.00 86 1007.7
20260505151534 22 215 3.2 12.9 0.00 0.00 0.00 86 1007.6